Dewpoint
53 46 38 39 40 35 23 20 12 15 13 15 10 10 10 15 15 9 10 12 12 19 38 49 49 49 48 48 48 47 53 51 49 44 41 53 65 64 67 68 69 69 70 70 70 70 71 72 72 72 72 71 71 71 71 71 72 72 73 73 73 72 73 73 73 72 72 73 72 72 72 72 72 72 72 72 72 71 71 71 71 71 71 70 69 69 69 69 69 68 68 68 67 66 66 67 66
46 39 36 38 30 20 17 21 18 16 15 11 9 11 10 11 11 9 9 12 12 14 51 48 54 55 54 55 55 53 51 61 61 59 63 64 64 66 68 68 69 69 70 70 69 70 71 72 72 72 71 71 71 71 71 72 72 73 72 73 73 73 73 73 72 72 72 72 73 73 72 73 72 72 72 72 72 72 72 72 71 70 70 69 69 69 69 69 69 68 68 68 67 67 67 67 67
47 38 31 26 21 20 29 17 12 19 13 11 10 10 13 10 9 10 11 14 16 36 55 53 54 55 53 49 47 48 44 62 63 64 63 63 61 64 68 68 69 70 69 69 70 70 70 71 72 71 71 71 71 71 72 72 72 72 72 72 72 73 73 73 73 73 72 73 73 72 72 72 72 72 72 72 72 72 71 71 71 71 70 70 69 69 69 69 69 69 68 68 67 67 67 67 67
38 45 33 21 17 21 22 21 21 19 10 10 10 10 12 13 11 12 14 19 31 51 52 50 49 53 52 51 52 57 59 61 64 64 63 63 64 66 68 69 70 69 69 69 69 70 70 72 72 71 71 71 71 71 72 72 72 72 72 72 72 73 73 73 73 73 73 73 72 72 72 72 72 72 72 71 71 71 71 71 71 71 71 70 70 69 69 69 69 67 67 68 67 67 68 67 67
33 41 36 20 19 25 19 24 16 14 10 16 8 10 17 14 13 13 16 28 52 53 50 54 52 54 56 56 57 55 55 63 64 64 64 65 66 68 69 69 69 69 69 69 69 70 70 72 71 71 70 71 71 71 71 72 72 72 72 72 73 73 73 73 73 73 73 72 72 72 72 72 72 72 71 71 71 72 71 70 70 70 69 69 69 69 68 69 69 69 68 68 68 68 68 68 68
34 30 36 26 19 24 15 16 20 13 11 12 10 10 12 12 18 13 13 25 36 48 51 53 49 52 54 58 59 60 63 60 63 64 65 65 67 68 69 69 68 69 69 68 69 69 70 71 71 71 71 71 70 71 71 72 72 72 73 73 73 73 73 73 73 73 73 72 72 72 72 72 72 72 72 72 71 71 71 71 71 70 69 69 69 69 69 69 69 69 69 68 68 68 69 68 69
32 21 23 20 19 23 18 15 13 11 11 12 11 11 12 12 13 15 15 13 15 42 46 44 55 50 52 58 60 63 63 64 64 64 66 66 68 68 68 68 68 68 68 68 69 69 70 71 71 71 70 70 70 71 71 72 72 73 73 73 73 72 73 73 73 72 72 72 72 72 72 72 72 72 72 72 71 71 71 71 71 71 71 70 69 69 69 69 69 69 69 69 69 69 69 69 69
41 23 26 16 18 19 19 16 12 12 12 12 13 12 13 14 14 19 15 13 12 19 34 56 53 47 50 63 56 63 64 65 65 66 67 67 67 67 68 68 68 68 68 68 69 70 71 71 71 71 71 71 71 71 72 72 73 73 73 73 73 73 73 73 72 72 72 72 72 72 72 72 71 71 71 71 71 71 70 70 70 69 69 69 68 69 69 69 70 69 70 70 70 70 70 69 70
31 26 33 15 18 16 15 14 12 14 13 13 13 20 37 25 23 16 13 14 13 27 25 52 54 46 50 61 60 62 63 65 66 67 66 66 67 67 68 68 67 67 68 69 69 70 70 71 71 71 71 71 71 72 72 72 73 73 73 73 73 73 73 72 72 72 72 72 72 72 71 71 71 71 70 70 70 70 70 69 69 69 69 69 69 69 69 69 69 69 70 70 70 70 70 70 70
28 22 20 20 15 16 11 11 12 12 12 13 13 13 13 13 13 13 11 11 13 41 45 56 54 47 60 60 61 62 63 65 65 65 66 66 67 67 67 67 67 67 68 68 69 70 70 71 71 71 71 71 71 72 72 72 73 73 73 73 73 72 72 72 72 72 72 71 71 71 71 71 70 70 70 70 70 69 69 69 69 69 69 69 68 69 69 69 70 70 70 70 70 70 70 70 69
21 23 25 18 20 13 13 11 12 11 11 12 12 12 12 12 14 13 14 14 18 13 44 58 54 60 62 61 61 63 64 65 64 64 65 66 67 67 67 67 67 68 68 69 69 69 70 69 71 71 71 71 72 73 73 73 73 73 73 73 72 72 72 72 72 72 72 71 71 71 71 70 70 70 70 70 69 69 69 68 68 68 68 68 68 68 68 69 69 69 70 70 69 70 70 70 71
19 21 19 14 14 12 12 11 17 13 13 13 12 13 14 15 15 13 14 11 14 25 30 55 52 62 60 61 60 62 63 63 64 65 66 66 66 67 67 67 68 68 69 69 69 69 69 70 70 71 71 72 73 73 73 73 73 73 72 72 72 72 72 72 72 71 71 71 71 70 70 70 70 70 70 69 68 68 68 68 67 67 67 67 68 68 67 68 68 69 69 70 70 69 69 70 70
15 18 16 15 14 13 16 11 11 21 16 16 12 13 14 14 12 11 13 12 24 24 15 50 62 61 58 60 61 62 62 63 65 66 65 65 66 67 67 68 68 68 69 69 68 69 69 69 69 69 70 72 72 72 72 73 73 72 72 72 72 72 72 72 72 71 71 71 71 70 70 70 70 69 69 69 69 69 69 68 68 67 67 67 67 67 67 67 67 68 68 69 69 69 70 70 70
20 19 14 12 15 12 11 13 15 17 14 16 16 15 17 15 14 14 10 10 8 16 35 55 61 63 60 61 60 60 61 64 65 65 65 66 66 67 67 68 68 68 68 68 68 69 68 69 69 70 70 71 71 72 73 72 72 72 72 72 72 72 72 71 71 71 71 71 71 70 70 70 69 69 69 69 69 69 69 68 68 68 67 68 67 68 67 67 66 66 68 69 68 69 69 70 70
18 22 19 18 13 13 12 10 10 11 10 12 14 15 15 30 16 14 10 9 15 24 61 62 63 53 57 59 59 60 62 64 65 65 66 66 67 67 67 67 67 68 68 69 69 69 69 70 70 71 71 71 71 71 71 72 72 72 72 72 72 72 72 71 71 71 71 71 70 70 70 70 70 70 69 69 69 69 68 68 68 68 68 68 68 68 68 68 67 66 67 67 68 69 69 69 70
21 19 21 17 11 10 10 10 12 10 10 11 12 14 12 10 13 11 11 14 45 60 60 59 60 51 58 58 61 62 63 64 65 66 66 66 67 67 67 67 67 68 69 69 70 70 71 70 71 71 71 71 71 71 71 71 72 72 72 72 72 71 71 71 71 71 71 71 70 70 70 70 70 70 70 69 69 68 69 69 68 68 68 68 68 69 69 69 69 69 68 67 66 67 68 68 68
23 21 17 16 11 10 9 10 10 9 11 11 12 11 10 10 13 20 59 55 57 58 62 63 60 63 61 60 62 63 64 65 66 65 65 65 65 65 65 66 67 67 68 69 70 70 70 70 71 71 71 71 71 71 71 71 71 72 72 72 72 71 71 71 71 71 71 71 71 70 70 67 67 67 66 66 69 69 69 69 68 68 68 68 69 69 69 70 70 70 70 70 70 69 68 67 66
23 21 17 14 12 10 11 10 10 11 10 10 11 10 9 9 11 12 58 59 60 61 62 63 63 63 63 63 63 64 64 64 64 63 63 63 63 63 64 65 66 66 67 68 69 70 70 70 71 71 70 71 71 71 71 71 71 71 70 70 70 70 70 70 70 69 71 69 71 69 68 70 66 66 66 70 69 70 69 69 69 69 69 69 70 70 69 69 70 69 69 69 70 70 68 63 63
18 20 17 9 12 11 13 10 11 9 9 10 10 11 9 9 9 8 31 56 57 58 61 62 62 62 63 63 63 63 63 63 63 62 62 62 62 62 63 64 64 66 66 68 68 69 70 70 70 70 70 71 71 71 71 71 70 70 70 70 70 71 70 71 70 70 68 68 69 68 70 68 67 68 69 70 71 71 70 70 69 70 70 70 70 69 69 69 69 69 69 69 69 68 64 62 61
22 17 12 11 14 13 11 11 11 10 10 9 9 10 7 8 9 18 21 48 57 57 60 61 61 61 62 62 63 63 63 62 62 62 61 61 61 62 63 63 64 64 65 68 68 68 69 69 70 70 70 71 70 70 71 70 70 70 70 70 69 69 69 69 69 69 69 68 68 68 68 68 69 67 70 70 72 68 67 69 70 70 70 70 69 68 68 69 68 68 68 68 67 64 62 61 60
21 19 13 12 15 13 11 10 10 9 9 9 9 8 7 7 13 40 45 55 54 56 61 61 61 62 62 62 62 62 62 61 61 61 61 61 62 62 63 63 63 64 66 67 68 68 68 69 69 69 70 70 70 70 70 70 70 70 70 69 68 68 68 68 68 68 68 67 67 69 68 69 68 68 68 67 67 66 66 66 66 67 67 68 69 66 65 66 66 65 65 65 63 63 62 61 60
23 18 18 16 16 13 14 10 10 9 12 8 9 8 6 30 58 55 50 31 43 53 58 63 62 62 62 62 62 62 62 61 61 61 61 61 62 62 63 63 64 65 66 66 67 68 68 69 69 69 70 70 70 70 70 70 70 69 69 69 68 68 68 67 67 67 66 67 66 68 69 68 67 67 66 66 67 66 66 65 66 66 67 68 68 67 66 66 66 66 66 66 65 63 61 60 59
18 21 22 18 15 14 17 14 11 9 9 8 8 8 11 40 54 57 52 41 46 54 60 64 63 63 63 63 62 62 61 61 61 61 61 61 61 62 63 63 63 64 65 66 67 67 68 68 69 69 69 70 70 70 70 69 70 69 69 69 68 67 68 67 67 66 66 66 67 69 68 67 66 65 65 65 65 66 66 66 67 66 66 67 68 66 65 66 66 66 66 66 66 65 65 63 61
21 16 20 22 15 15 16 15 14 12 10 9 10 14 10 34 12 56 58 61 62 63 63 64 63 63 63 62 62 62 61 61 61 61 62 61 61 62 63 63 64 64 64 65 66 67 67 68 69 69 69 69 69 70 69 69 69 69 69 69 68 68 68 68 67 65 66 67 69 69 68 66 66 64 64 64 65 66 67 67 66 66 66 66 67 67 66 66 66 66 66 66 66 66 66 66 66
21 21 22 22 20 16 15 15 14 14 12 12 11 10 9 36 28 57 60 62 63 64 64 63 64 63 63 62 62 62 62 62 61 61 62 62 61 62 63 63 64 64 63 64 66 66 67 68 68 69 69 69 69 69 69 69 69 68 68 69 68 69 67 67 66 66 66 68 70 70 69 66 66 65 64 65 64 66 67 67 65 65 65 66 66 65 65 66 65 65 66 66 66 66 66 66 66
20 21 21 21 19 19 19 19 19 18 16 12 19 10 33 44 57 57 61 63 63 64 63 63 63 63 63 62 62 62 62 62 61 61 61 62 62 62 62 63 64 64 63 63 65 66 66 67 68 68 68 68 68 69 69 68 68 68 68 68 68 69 67 66 66 66 66 67 67 68 69 66 65 65 66 65 65 65 66 65 65 65 65 65 65 65 65 66 65 65 65 65 65 65 64 65 65
20 20 21 21 19 19 18 17 19 20 19 11 12 10 39 56 48 42 59 64 64 63 63 64 63 63 63 63 63 63 62 62 61 62 61 61 62 62 62 63 64 64 64 64 65 66 66 67 67 68 67 68 68 68 67 67 67 67 66 66 67 67 66 67 66 66 65 65 65 66 66 69 68 67 66 65 64 64 64 64 64 64 65 65 65 65 65 66 65 65 65 65 64 64 63 63 63
16 17 20 20 20 20 18 16 15 15 15 13 12 13 45 53 45 42 61 64 64 63 63 63 63 63 63 63 63 63 62 62 62 61 61 61 62 62 62 63 64 65 65 64 64 65 66 66 66 66 66 67 67 66 66 65 65 65 66 66 65 66 67 66 66 66 66 65 65 65 66 66 68 67 67 64 64 64 63 63 63 64 64 65 65 65 65 65 65 65 65 64 64 63 62 61 62
15 14 12 12 16 18 19 18 17 14 13 15 14 14 37 48 43 54 63 64 63 62 62 63 63 63 63 63 62 62 62 61 62 61 61 61 62 63 63 64 65 65 65 64 64 65 65 66 66 66 65 65 65 65 65 64 65 66 65 65 66 67 66 66 65 65 65 65 65 65 66 67 67 66 66 66 66 63 63 64 64 64 64 64 64 64 64 63 63 63 63 63 62 61 60 60 60
14 12 11 11 11 11 16 18 18 13 13 14 14 12 12 39 51 61 63 63 62 62 62 61 62 62 62 62 62 61 61 61 61 61 62 62 63 63 63 65 66 65 65 65 65 65 65 65 66 65 65 64 64 64 65 65 65 65 66 66 67 66 66 66 66 65 66 65 65 65 66 67 67 66 66 65 64 64 64 64 64 64 63 63 63 63 62 62 61 61 62 60 61 59 59 59 59
13 14 11 13 12 10 12 16 16 15 14 12 13 11 15 28 56 62 63 63 61 60 60 60 60 61 61 61 61 61 61 61 61 61 61 62 63 64 64 65 65 65 65 65 65 65 65 65 65 65 65 64 65 65 65 65 64 65 65 66 66 66 66 66 66 65 65 65 65 66 66 67 67 66 66 65 64 64 64 63 63 63 63 62 62 62 61 61 60 60 60 59 58 58 57 58 57
11 10 9 10 10 9 10 18 14 13 13 12 11 13 15 28 57 61 63 63 61 60 60 60 60 60 60 60 60 60 61 61 61 62 62 62 63 64 65 65 65 65 65 65 65 64 64 64 65 64 64 64 64 65 64 65 64 65 66 66 66 66 66 66 65 65 64 65 66 66 66 66 65 65 65 64 63 63 62 62 62 62 62 61 60 60 60 60 59 59 59 58 57 55 55 55 56
12 10 12 10 10 9 8 10 14 13 11 12 10 10 41 50 57 60 62 62 61 60 60 60 59 59 59 60 60 60 60 61 61 62 62 63 64 64 65 65 65 65 65 64 64 64 64 65 65 64 64 64 64 64 64 65 65 65 65 65 65 65 65 65 65 65 65 65 65 65 66 65 63 63 63 63 62 61 61 61 61 61 61 60 59 59 59 59 59 58 57 56 55 54 53 52 53
14 11 10 15 9 9 7 8 9 12 10 9 10 35 40 50 57 59 60 61 60 59 59 59 59 59 59 59 59 60 60 60 60 62 62 63 64 64 64 65 65 64 64 64 64 64 64 64 64 64 64 64 64 64 64 65 65 65 66 66 66 65 65 65 65 65 64 64 65 65 65 64 63 62 62 62 61 61 60 60 59 59 59 59 58 58 58 58 58 58 56 55 54 53 52 52 52
13 14 13 9 8 8 7 5 6 9 10 9 10 13 40 52 57 58 60 61 60 59 59 59 59 60 60 59 59 59 59 60 60 62 63 63 63 64 64 64 64 64 64 64 64 64 64 64 65 65 64 64 64 64 65 65 65 65 65 65 65 65 65 65 65 64 64 63 63 63 63 63 62 61 61 61 60 59 59 59 58 58 58 57 57 56 56 57 57 57 55 54 54 53 52 52 52
13 13 15 9 7 6 7 8 8 8 7 8 13 13 46 54 56 58 59 61 60 60 59 59 60 60 60 59 59 59 59 60 61 63 63 63 64 64 64 64 64 63 63 64 64 64 64 65 65 64 64 64 64 65 65 65 65 64 64 64 64 64 64 63 63 62 62 62 61 61 61 61 62 61 60 60 60 59 58 58 57 57 57 56 55 55 55 55 56 55 55 52 51 51 51 51 51
12 11 10 7 5 5 6 7 8 7 7 7 19 27 48 53 55 57 59 60 60 59 59 59 59 59 60 60 59 59 59 60 62 63 63 63 63 63 63 63 63 63 63 64 63 64 64 64 64 63 64 64 64 64 64 64 63 63 64 63 62 63 62 61 60 60 59 59 59 59 59 59 59 60 60 59 59 59 58 57 56 56 56 56 55 54 55 55 55 55 54 53 51 49 49 50 51
8 9 9 8 5 4 5 5 6 7 11 19 32 44 48 53 55 57 58 59 58 58 58 58 59 59 60 60 60 60 60 62 62 62 63 63 63 63 63 63 63 62 63 63 63 63 64 64 64 64 64 64 64 64 64 64 64 64 63 63 62 62 61 59 58 58 58 58 58 57 57 57 57 58 58 58 57 57 57 56 56 55 55 54 54 54 53 54 52 53 53 50 51 49 49 50 50
12 9 9 8 6 7 7 8 10 9 6 23 43 43 49 53 55 57 58 58 58 58 58 58 58 59 59 60 60 60 60 60 61 62 62 63 63 63 63 63 63 63 63 63 63 64 64 64 64 64 64 64 64 64 64 63 63 64 63 62 61 60 60 58 57 57 57 55 56 56 56 56 55 55 56 57 56 56 55 55 55 54 54 54 51 51 51 51 51 51 51 50 48 49 49 49 49
16 12 10 8 9 6 7 8 44 47 19 42 46 43 49 54 56 56 58 58 58 59 59 59 59 58 59 59 60 60 60 60 60 61 61 63 63 63 63 62 63 63 62 63 63 63 64 64 64 64 63 63 64 64 64 63 64 63 62 61 60 58 56 56 56 55 55 54 54 54 55 55 54 54 54 55 55 55 54 54 54 53 53 53 51 50 50 50 50 50 50 51 49 47 46 46 48
19 12 13 13 7 6 7 6 42 48 50 49 47 47 48 52 52 53 55 57 57 58 58 58 59 59 59 60 60 60 60 60 60 60 61 62 62 62 62 62 63 62 63 63 63 63 63 64 64 64 63 63 63 64 64 64 62 61 59 58 57 56 56 55 54 54 55 54 53 53 53 54 54 54 54 54 55 53 54 53 53 53 52 52 51 50 50 50 49 49 49 49 48 47 46 46 47
15 14 10 9 10 12 15 38 36 38 44 48 38 31 39 49 52 53 54 55 55 56 56 57 58 58 59 59 59 60 60 60 60 61 61 62 62 62 62 63 62 63 63 63 64 64 64 64 64 64 63 63 63 63 64 63 61 59 58 57 57 56 54 54 53 52 53 52 51 52 52 53 53 53 53 53 54 54 53 53 52 52 51 51 51 50 50 50 49 48 49 48 47 48 46 45 44
13 13 10 10 10 11 11 22 27 23 25 41 43 15 27 48 49 52 53 53 54 55 55 56 57 57 58 58 59 60 60 60 60 61 62 62 62 62 62 62 63 62 63 64 64 64 64 64 64 64 63 63 63 63 64 63 60 60 59 58 58 56 55 54 54 53 52 52 52 51 51 52 51 52 52 52 53 53 52 52 52 51 51 51 51 50 49 49 49 49 48 47 47 48 45 44 45
10 12 10 9 9 9 12 26 26 29 32 46 44 26 33 40 47 51 53 53 53 53 54 55 56 57 57 58 59 60 60 60 60 61 61 62 62 62 62 62 63 63 63 64 64 64 64 64 64 63 63 63 63 64 64 62 60 60 59 59 58 56 54 53 53 52 52 52 50 50 50 50 50 51 51 51 52 52 52 51 51 51 51 51 50 48 48 48 47 48 48 47 47 46 45 44 43
11 10 9 9 8 8 9 14 29 33 41 37 42 40 29 34 42 50 52 50 51 52 53 54 55 56 57 57 58 59 60 60 60 60 61 62 62 62 62 62 63 63 64 64 64 64 64 64 63 63 62 63 63 64 63 62 61 60 60 58 57 54 53 53 53 53 51 51 49 49 49 49 49 50 50 50 51 52 52 50 50 49 49 50 50 48 48 47 46 46 45 45 45 45 45 44 42
8 10 10 12 9 10 8 10 11 29 30 32 39 40 22 28 41 49 52 50 50 51 52 53 54 55 56 57 57 59 60 60 60 60 61 62 62 62 62 63 63 63 64 64 64 64 64 63 62 62 62 63 63 64 63 62 61 60 59 57 54 54 53 52 51 50 49 49 48 48 48 48 48 49 49 50 50 49 50 50 49 49 49 50 49 47 46 46 46 45 45 45 44 43 44 42 41
10 10 9 9 14 15 26 18 26 27 23 25 36 40 28 24 37 47 47 48 50 51 52 53 54 54 56 56 57 58 60 60 60 60 61 61 62 63 63 62 63 64 64 64 63 63 63 62 62 62 63 63 63 63 62 61 61 59 58 55 54 53 52 51 50 49 48 48 47 48 47 47 48 48 49 49 49 49 50 51 48 49 50 50 48 46 46 45 45 45 44 44 43 42 41 40 41
8 7 8 7 12 12 14 16 20 9 10 18 32 40 33 24 27 44 49 51 50 50 50 51 53 54 55 56 57 58 60 60 60 60 60 61 62 62 63 62 63 63 63 63 63 62 62 62 62 61 61 62 63 63 62 61 60 59 57 55 54 53 52 51 49 48 48 47 47 47 47 47 47 47 47 47 48 48 49 48 49 47 48 47 46 46 46 45 45 44 43 43 42 42 42 41 39
7 10 10 7 8 7 3 11 6 8 6 11 31 39 33 31 28 42 48 49 51 50 50 51 52 53 54 56 56 58 59 60 60 60 60 61 61 61 62 62 63 62 62 63 62 62 62 62 61 61 61 62 63 62 62 61 59 58 57 55 55 54 52 50 49 48 48 47 46 46 46 46 46 46 46 46 47 47 48 47 47 47 47 47 47 45 45 44 44 43 42 42 42 41 41 40 39
7 6 10 6 6 4 3 6 10 12 14 17 36 38 32 32 35 40 47 49 50 51 51 52 53 54 54 55 56 58 59 60 60 60 60 60 61 61 62 62 62 62 62 62 62 62 62 62 61 60 61 62 62 62 61 60 59 58 57 56 56 53 52 50 49 48 47 47 47 46 46 46 46 46 46 46 47 48 47 48 47 47 47 47 46 45 45 44 43 41 41 41 40 40 40 40 40
7 7 6 9 6 5 4 6 6 8 9 21 34 29 27 22 27 39 47 49 49 50 51 52 53 54 55 56 56 58 59 60 60 60 60 60 61 61 61 62 62 62 62 62 62 62 62 61 61 61 61 61 62 61 60 59 58 58 58 57 54 52 51 50 49 48 47 46 46 46 46 46 46 46 46 47 48 46 46 46 46 46 46 46 46 45 45 44 43 42 42 41 41 40 40 40 39
7 6 8 8 6 18 7 15 12 15 21 25 31 25 27 26 34 43 45 46 47 51 52 53 53 54 55 56 56 57 59 59 60 60 60 61 61 61 61 62 62 62 62 62 62 61 61 61 61 61 60 60 60 60 59 58 58 57 56 54 53 53 52 50 50 49 47 47 46 46 46 46 46 46 47 46 46 46 45 45 46 45 45 45 45 44 43 43 42 41 41 40 40 41 39 39 40
11 5 6 6 17 21 12 11 21 17 15 12 23 31 33 37 36 40 45 45 47 51 52 52 53 54 55 55 56 56 58 59 60 60 60 61 61 61 61 61 61 61 62 61 61 61 60 60 60 59 59 59 59 58 57 56 56 55 54 53 52 51 50 48 47 47 47 47 46 46 46 46 46 45 46 46 45 45 45 45 44 44 44 44 44 44 44 43 42 41 40 39 39 40 41 39 40
6 6 7 16 20 17 11 5 13 12 10 11 26 27 31 26 25 42 45 45 48 50 51 52 53 54 54 55 56 56 58 59 59 60 61 61 61 61 61 61 61 61 61 61 60 60 59 59 59 58 57 57 56 55 55 55 54 53 53 52 51 50 49 48 47 46 46 46 46 46 46 46 45 46 46 46 45 45 46 47 44 44 44 44 44 43 43 42 42 41 41 41 41 41 41 42 42
7 7 13 5 6 5 14 12 5 10 9 8 22 26 30 28 26 43 43 45 48 49 51 52 52 53 54 55 56 57 58 59 59 60 60 61 61 61 61 61 61 61 61 60 59 58 58 57 57 57 56 55 54 54 54 53 53 53 52 51 50 49 48 47 46 46 46 45 45 45 45 45 45 46 46 44 43 43 43 43 44 43 44 43 43 43 43 42 41 41 41 40 41 40 40 40 41
8 8 6 12 13 11 10 15 16 16 7 12 17 27 25 33 31 42 42 45 48 49 51 51 52 53 54 55 56 57 57 58 59 59 60 60 61 61 61 61 60 60 59 58 57 57 56 56 55 54 54 53 53 53 53 52 52 51 50 50 49 48 47 46 46 45 45 45 45 45 44 44 44 45 42 43 42 43 43 43 43 43 43 43 43 42 42 41 41 41 41 40 40 39 39 39 40
6 7 7 10 14 16 6 21 10 13 10 10 15 19 26 32 35 41 43 45 48 50 51 52 52 53 54 55 56 57 57 58 59 59 60 60 60 61 61 61 60 59 57 57 56 55 55 54 53 53 52 52 52 52 51 51 51 50 49 48 47 47 46 46 45 45 45 45 45 45 43 43 43 42 42 42 42 42 42 43 43 44 42 42 42 42 42 41 41 40 40 40 39 39 39 40 41
6 8 9 6 7 10 4 8 16 18 12 8 18 17 26 30 39 40 43 46 48 50 51 51 52 53 54 55 56 57 57 58 59 59 59 60 60 60 60 60 59 57 56 55 55 54 53 53 52 52 51 51 50 50 50 50 49 49 48 47 46 46 46 45 45 45 45 44 43 42 42 41 41 41 41 41 41 42 42 41 41 41 41 41 42 41 41 41 40 40 40 40 40 39 39 38 39